OK2ZI Weather Reports


time (UTC)temp
F
wind
direction
speed
knots
gust
knots
rain 1hr
in
rain 24hr
in
rain mn
in
humidity
%
barometer
mb
20260506180019 67 162 4.3 4.3 0.00 0.00 0.00 53 1001.0
20260506175807 67 132 0.0 0.0 0.00 0.00 0.00 53 1001.0
20260506175640 67 174 5.2 5.2 0.00 0.00 0.00 53 1001.0
20260506175407 68 222 6.1 6.1 0.00 0.00 0.00 52 1001.0
20260506175206 68 120 5.2 5.2 0.00 0.00 0.00 52 1001.0
20260506175011 68 192 7.0 7.0 0.00 0.00 0.00 51 1001.0
20260506174811 68 144 0.0 0.0 0.00 0.00 0.00 51 1001.0
20260506174606 68 198 0.0 0.0 0.00 0.00 0.00 51 1001.0
20260506174406 68 108 4.3 4.3 0.00 0.00 0.00 50 1001.0
20260506174207 69 204 4.3 4.3 0.00 0.00 0.00 50 1001.0
20260506174012 69 144 5.2 5.2 0.00 0.00 0.00 50 1001.0
20260506173807 69 162 16.5 19.1 0.00 0.00 0.00 49 1001.0
20260506173606 69 150 0.0 0.0 0.00 0.00 0.00 49 1001.0
20260506173406 69 138 4.3 4.3 0.00 0.00 0.00 49 1001.0
20260506173015 69 185 5.2 5.2 0.00 0.00 0.00 49 1001.0
20260506172807 70 185 4.3 4.3 0.00 0.00 0.00 48 1001.0
20260506172606 70 167 0.0 0.0 0.00 0.00 0.00 48 1001.0
20260506172407 71 168 5.2 5.2 0.00 0.00 0.00 47 1001.0
20260506172207 71 179 12.2 12.2 0.00 0.00 0.00 46 1001.0
20260506171807 71 138 0.0 0.0 0.00 0.00 0.00 46 1001.0
20260506171607 71 234 7.0 7.0 0.00 0.00 0.00 46 1001.0
20260506171406 71 114 7.0 7.0 0.00 0.00 0.00 46 1001.0
20260506171206 71 138 7.0 7.0 0.00 0.00 0.00 46 1001.0
20260506171012 71 100 7.8 7.8 0.00 0.00 0.00 47 1001.0
20260506170807 72 162 7.0 7.0 0.00 0.00 0.00 46 1001.0
20260506170606 72 189 7.0 7.0 0.00 0.00 0.00 46 1001.0
20260506170407 71 156 6.1 6.1 0.00 0.00 0.00 46 1001.0
20260506170206 71 96 6.1 6.1 0.00 0.00 0.00 46 1001.0
20260506170016 71 126 0.0 0.0 0.00 0.00 0.00 46 1001.0
20260506165806 71 132 7.8 7.8 0.00 0.00 0.00 46 1001.0
20260506165406 71 117 7.8 7.8 0.00 0.00 0.00 47 1001.0
20260506165011 71 106 6.1 6.1 0.00 0.00 0.00 47 1001.0
20260506164806 71 162 0.0 0.0 0.00 0.00 0.00 47 1001.0
20260506164606 71 144 7.0 7.0 0.00 0.00 0.00 46 1001.0
20260506164406 71 198 7.0 7.0 0.00 0.00 0.00 46 1002.0
20260506164212 71 132 6.1 6.1 0.00 0.00 0.00 46 1002.0
20260506164011 71 168 7.8 7.8 0.00 0.00 0.00 46 1002.0
20260506163806 72 168 5.2 5.2 0.00 0.00 0.00 46 1002.0
20260506163606 72 210 7.8 7.8 0.00 0.00 0.00 46 1002.0
20260506163206 72 180 12.2 12.2 0.00 0.00 0.00 46 1002.0
20260506163015 72 126 4.3 4.3 0.00 0.00 0.00 46 1002.0
20260506162607 72 192 13.0 13.0 0.00 0.00 0.00 46 1002.0
20260506162407 72 101 7.8 7.8 0.00 0.00 0.00 45 1002.0
20260506162207 72 198 7.0 7.0 0.00 0.00 0.00 45 1002.0
20260506162011 72 186 13.9 15.6 0.00 0.00 0.00 45 1002.0
20260506161807 72 192 7.8 7.8 0.00 0.00 0.00 45 1002.0
20260506161607 72 138 7.0 7.0 0.00 0.00 0.00 45 1002.0
20260506161407 72 140 12.2 12.2 0.00 0.00 0.00 44 1002.0
20260506161206 72 192 13.0 13.0 0.00 0.00 0.00 44 1002.0
20260506161012 73 152 7.0 7.0 0.00 0.00 0.00 44 1002.0
20260506160807 73 157 7.0 7.0 0.00 0.00 0.00 43 1002.0
20260506160406 74 210 17.4 19.1 0.00 0.00 0.00 42 1002.0
20260506160018 74 138 6.1 6.1 0.00 0.00 0.00 41 1002.0
20260506155806 74 138 7.8 7.8 0.00 0.00 0.00 41 1002.0
20260506155606 73 124 6.1 6.1 0.00 0.00 0.00 41 1002.0
20260506155407 73 178 7.8 7.8 0.00 0.00 0.00 42 1002.0
20260506155206 73 205 14.8 15.6 0.00 0.00 0.00 42 1002.0
20260506155011 74 162 7.0 7.0 0.00 0.00 0.00 42 1002.0
20260506154607 74 210 7.0 7.0 0.00 0.00 0.00 41 1002.0
20260506154406 73 204 13.0 14.8 0.00 0.00 0.00 41 1002.0
20260506154009 73 162 7.0 7.0 0.00 0.00 0.00 40 1002.0
20260506153807 72 126 7.0 7.0 0.00 0.00 0.00 41 1002.0
20260506153607 72 147 4.3 4.3 0.00 0.00 0.00 42 1002.0
20260506153404 72 174 12.2 12.2 0.00 0.00 0.00 43 1002.0
20260506153015 73 192 15.6 16.5 0.00 0.00 0.00 42 1002.0
20260506152407 73 104 0.0 0.0 0.00 0.00 0.00 42 1002.0
20260506152212 73 113 7.0 7.0 0.00 0.00 0.00 42 1002.0
20260506152008 73 132 4.3 4.3 0.00 0.00 0.00 43 1003.0
20260506151807 73 114 7.0 7.0 0.00 0.00 0.00 43 1003.0
20260506151607 73 147 0.0 0.0 0.00 0.00 0.00 42 1003.0
20260506151405 73 105 15.6 16.5 0.00 0.00 0.00 41 1003.0
20260506151205 76 246 13.0 14.8 0.00 0.00 0.00 40 1003.0
20260506150806 75 132 7.8 7.8 0.00 0.00 0.00 39 1003.0
20260506150405 74 173 12.2 12.2 0.00 0.00 0.00 40 1003.0
20260506150206 73 106 7.0 7.0 0.00 0.00 0.00 40 1003.0
20260506150016 73 147 4.3 4.3 0.00 0.00 0.00 41 1003.0
20260506145806 73 198 7.8 7.8 0.00 0.00 0.00 41 1003.0
20260506145606 74 186 13.0 14.8 0.00 0.00 0.00 40 1003.0
20260506145406 74 221 7.0 7.0 0.00 0.00 0.00 41 1003.0
20260506145011 74 184 7.0 7.0 0.00 0.00 0.00 40 1003.0
20260506144807 75 162 12.2 12.2 0.00 0.00 0.00 39 1003.0
20260506144607 76 202 12.2 12.2 0.00 0.00 0.00 37 1003.0
20260506144207 75 191 12.2 12.2 0.00 0.00 0.00 37 1003.0
20260506144011 74 156 6.1 6.1 0.00 0.00 0.00 38 1003.0
20260506143810 74 132 6.1 6.1 0.00 0.00 0.00 39 1003.0
20260506143606 73 168 12.2 12.2 0.00 0.00 0.00 40 1003.0
20260506143407 73 113 7.0 7.0 0.00 0.00 0.00 41 1003.0
20260506143206 73 132 6.1 6.1 0.00 0.00 0.00 42 1003.0
20260506143015 73 68 15.6 16.5 0.00 0.00 0.00 42 1003.0
20260506142807 73 246 13.9 15.6 0.00 0.00 0.00 42 1003.0
20260506142607 73 162 7.0 7.0 0.00 0.00 0.00 43 1003.0
20260506142407 73 108 7.8 7.8 0.00 0.00 0.00 43 1003.0
20260506142205 72 156 7.0 7.0 0.00 0.00 0.00 44 1003.0
20260506142012 72 107 7.8 7.8 0.00 0.00 0.00 44 1003.0
20260506141807 73 180 12.2 12.2 0.00 0.00 0.00 43 1003.0
20260506141606 73 114 7.0 7.0 0.00 0.00 0.00 43 1003.0
20260506141207 73 146 7.0 7.0 0.00 0.00 0.00 43 1003.0
20260506141010 73 150 5.2 5.2 0.00 0.00 0.00 43 1003.0
20260506140209 76 72 5.2 5.2 0.00 0.00 0.00 40 1003.0
20260506140020 76 126 12.2 12.2 0.00 0.00 0.00 40 1003.0
20260506135606 75 174 13.0 13.0 0.00 0.00 0.00 41 1003.0
20260506135011 74 197 19.1 20.0 0.00 0.00 0.00 43 1003.0
20260506134806 75 156 6.1 6.1 0.00 0.00 0.00 41 1003.0
20260506134607 77 112 7.0 7.0 0.00 0.00 0.00 39 1003.0
20260506134407 78 166 6.1 6.1 0.00 0.00 0.00 39 1003.0
20260506134207 77 211 12.2 12.2 0.00 0.00 0.00 39 1003.0
20260506134011 77 174 13.0 14.8 0.00 0.00 0.00 39 1003.0
20260506133806 77 174 12.2 12.2 0.00 0.00 0.00 39 1003.0
20260506133606 76 146 15.6 16.5 0.00 0.00 0.00 39 1003.0
20260506133406 76 202 13.9 15.6 0.00 0.00 0.00 39 1003.0
20260506133206 76 90 7.8 7.8 0.00 0.00 0.00 40 1003.0
20260506133015 76 157 12.2 12.2 0.00 0.00 0.00 40 1003.0
20260506132807 77 210 13.9 14.8 0.00 0.00 0.00 40 1003.0
20260506132607 78 162 20.9 24.3 0.00 0.00 0.00 41 1003.0
20260506132408 77 192 15.6 16.5 0.00 0.00 0.00 41 1003.0
20260506132207 76 150 6.1 6.1 0.00 0.00 0.00 41 1003.0
20260506131807 75 198 15.6 16.5 0.00 0.00 0.00 42 1003.0
20260506131605 74 206 7.8 7.8 0.00 0.00 0.00 43 1003.0
20260506131406 74 145 7.8 7.8 0.00 0.00 0.00 45 1003.0
20260506131206 74 166 15.6 17.4 0.00 0.00 0.00 44 1003.0
20260506131011 74 174 6.1 6.1 0.00 0.00 0.00 43 1004.0
20260506130806 73 162 12.2 12.2 0.00 0.00 0.00 44 1004.0
20260506130607 73 162 7.8 7.8 0.00 0.00 0.00 45 1004.0
20260506130407 73 168 7.8 7.8 0.00 0.00 0.00 46 1004.0
20260506130207 73 174 13.9 14.8 0.00 0.00 0.00 45 1004.0
20260506130021 73 168 12.2 12.2 0.00 0.00 0.00 45 1004.0
20260506125805 73 185 6.1 6.1 0.00 0.00 0.00 44 1004.0
20260506125607 73 162 5.2 5.2 0.00 0.00 0.00 44 1004.0
20260506125406 72 209 0.0 0.0 0.00 0.00 0.00 46 1004.0
20260506125206 72 192 19.1 20.9 0.00 0.00 0.00 46 1004.0
20260506124807 71 207 7.0 7.0 0.00 0.00 0.00 46 1004.0
20260506124607 71 120 0.0 0.0 0.00 0.00 0.00 47 1004.0
20260506124011 71 196 14.8 15.6 0.00 0.00 0.00 47 1004.0
20260506123806 71 114 5.2 5.2 0.00 0.00 0.00 47 1004.0
20260506123607 72 189 5.2 5.2 0.00 0.00 0.00 47 1004.0
20260506123207 73 196 15.6 17.4 0.00 0.00 0.00 44 1004.0
20260506123017 73 192 13.9 14.8 0.00 0.00 0.00 43 1004.0
20260506122807 73 192 12.2 12.2 0.00 0.00 0.00 43 1004.0
20260506122407 71 168 4.3 4.3 0.00 0.00 0.00 45 1004.0
20260506122011 71 184 0.0 0.0 0.00 0.00 0.00 48 1004.0
20260506121807 71 184 14.8 15.6 0.00 0.00 0.00 48 1004.0
20260506121607 71 186 12.2 12.2 0.00 0.00 0.00 46 1004.0
20260506121407 72 204 12.2 12.2 0.00 0.00 0.00 45 1004.0
20260506121013 72 204 7.8 7.8 0.00 0.00 0.00 44 1004.0
20260506120607 72 195 7.8 7.8 0.00 0.00 0.00 44 1004.0
20260506120205 72 198 13.0 13.0 0.00 0.00 0.00 44 1005.0
20260506120018 73 174 5.2 5.2 0.00 0.00 0.00 44 1004.0
20260506115807 73 167 6.1 6.1 0.00 0.00 0.00 43 1004.0
20260506115607 73 180 13.0 13.0 0.00 0.00 0.00 43 1004.0
20260506115407 73 198 7.8 7.8 0.00 0.00 0.00 42 1004.0
20260506115207 73 120 7.0 7.0 0.00 0.00 0.00 42 1004.0
20260506115011 73 186 7.8 7.8 0.00 0.00 0.00 43 1005.0
20260506114807 73 198 18.2 19.1 0.00 0.00 0.00 43 1005.0
20260506114606 74 186 17.4 18.2 0.00 0.00 0.00 42 1005.0
20260506114407 75 184 13.0 14.8 0.00 0.00 0.00 41 1005.0
20260506114207 75 144 14.8 15.6 0.00 0.00 0.00 40 1005.0
20260506114012 74 224 7.8 7.8 0.00 0.00 0.00 40 1004.0
20260506113807 74 239 14.8 15.6 0.00 0.00 0.00 39 1004.0
20260506113606 73 168 0.0 0.0 0.00 0.00 0.00 41 1004.0
20260506113407 72 126 7.0 7.0 0.00 0.00 0.00 42 1004.0
20260506113207 72 201 4.3 4.3 0.00 0.00 0.00 44 1004.0
20260506113015 72 192 17.4 19.1 0.00 0.00 0.00 43 1005.0
20260506112606 72 180 6.1 6.1 0.00 0.00 0.00 43 1005.0
20260506112407 71 162 7.0 7.0 0.00 0.00 0.00 43 1005.0
20260506112206 71 128 4.3 4.3 0.00 0.00 0.00 42 1005.0
20260506112012 71 208 7.8 7.8 0.00 0.00 0.00 44 1005.0
20260506111806 71 174 7.8 7.8 0.00 0.00 0.00 44 1005.0
20260506111607 72 180 7.8 7.8 0.00 0.00 0.00 42 1005.0
20260506111407 72 186 6.1 6.1 0.00 0.00 0.00 42 1005.0
20260506111206 73 192 7.8 7.8 0.00 0.00 0.00 41 1005.0
20260506111011 73 192 6.1 6.1 0.00 0.00 0.00 40 1005.0
20260506110807 73 156 4.3 4.3 0.00 0.00 0.00 41 1005.0
20260506110606 73 183 13.0 13.0 0.00 0.00 0.00 41 1005.0
20260506110407 74 167 6.1 6.1 0.00 0.00 0.00 40 1005.0
20260506110207 75 207 12.2 12.2 0.00 0.00 0.00 39 1005.0
20260506110018 76 134 7.0 7.0 0.00 0.00 0.00 38 1005.0
20260506105806 76 162 4.3 4.3 0.00 0.00 0.00 39 1005.0
20260506105607 76 192 6.1 6.1 0.00 0.00 0.00 40 1005.0
20260506105406 75 196 12.2 12.2 0.00 0.00 0.00 41 1005.0
20260506105012 73 192 6.1 6.1 0.00 0.00 0.00 40 1005.0
20260506104607 73 186 6.1 6.1 0.00 0.00 0.00 44 1005.0
20260506104407 73 168 12.2 12.2 0.00 0.00 0.00 43 1005.0
20260506104206 72 144 0.0 0.0 0.00 0.00 0.00 43 1005.0
20260506104013 72 192 7.0 7.0 0.00 0.00 0.00 43 1005.0
20260506103807 72 206 16.5 17.4 0.00 0.00 0.00 44 1005.0
20260506103407 72 183 19.1 20.9 0.00 0.00 0.00 44 1005.0
20260506103205 73 174 7.0 7.0 0.00 0.00 0.00 45 1005.0
20260506103014 73 179 13.0 14.8 0.00 0.00 0.00 46 1005.0
20260506102807 73 211 24.3 24.3 0.00 0.00 0.00 43 1005.0
20260506102607 73 184 12.2 12.2 0.00 0.00 0.00 45 1005.0
20260506102406 73 184 7.8 7.8 0.00 0.00 0.00 44 1005.0
20260506102012 73 150 0.0 0.0 0.00 0.00 0.00 44 1005.0
20260506101808 73 90 6.1 6.1 0.00 0.00 0.00 44 1005.0
20260506101611 72 167 7.0 7.0 0.00 0.00 0.00 45 1005.0
20260506101409 72 153 5.2 5.2 0.00 0.00 0.00 46 1005.0
20260506101207 71 190 7.8 7.8 0.00 0.00 0.00 47 1005.0
20260506100606 71 174 19.1 20.0 0.00 0.00 0.00 46 1005.0
20260506100207 72 184 22.6 26.1 0.00 0.00 0.00 44 1005.0
20260506100021 72 173 4.3 4.3 0.00 0.00 0.00 44 1005.0
20260506095807 72 186 22.6 26.1 0.00 0.00 0.00 46 1005.0
20260506095407 71 192 12.2 12.2 0.00 0.00 0.00 47 1005.0
20260506095207 72 180 21.7 21.7 0.00 0.00 0.00 47 1005.0
20260506095011 73 192 15.6 16.5 0.00 0.00 0.00 43 1005.0
20260506094807 72 210 7.0 7.0 0.00 0.00 0.00 44 1005.0
20260506094406 71 186 6.1 6.1 0.00 0.00 0.00 47 1005.0
20260506094206 70 196 21.7 21.7 0.00 0.00 0.00 48 1005.0
20260506094012 70 180 0.0 0.0 0.00 0.00 0.00 50 1005.0
20260506093606 71 168 19.1 20.9 0.00 0.00 0.00 47 1005.0
20260506093406 71 178 13.9 14.8 0.00 0.00 0.00 48 1005.0
20260506093211 72 180 19.1 20.0 0.00 0.00 0.00 47 1005.0
20260506093016 71 179 5.2 5.2 0.00 0.00 0.00 50 1005.0
20260506092807 71 177 12.2 12.2 0.00 0.00 0.00 48 1005.0
20260506092606 71 189 12.2 12.2 0.00 0.00 0.00 49 1005.0
20260506092407 71 168 7.0 7.0 0.00 0.00 0.00 47 1005.0
20260506092207 70 138 4.3 4.3 0.00 0.00 0.00 49 1005.0
20260506092011 70 184 12.2 12.2 0.00 0.00 0.00 49 1005.0
20260506091807 69 179 4.3 4.3 0.00 0.00 0.00 51 1005.0
20260506091407 69 185 13.0 14.8 0.00 0.00 0.00 52 1005.0
20260506091207 69 186 16.5 17.4 0.00 0.00 0.00 51 1005.0
20260506091011 68 180 4.3 4.3 0.00 0.00 0.00 53 1005.0
20260506090807 68 179 21.7 24.3 0.00 0.00 0.00 52 1005.0
20260506090712 68 174 12.2 12.2 0.00 0.00 0.00 55 1005.0
20260506090411 68 172 7.8 7.8 0.00 0.00 0.00 54 1006.0
20260506090219 69 174 0.0 0.0 0.00 0.00 0.00 53 1006.0
20260506090031 69 192 7.0 7.0 0.00 0.00 0.00 53 1006.0
20260506085813 69 156 6.1 6.1 0.00 0.00 0.00 53 1006.0
20260506085507 70 198 19.1 20.0 0.00 0.00 0.00 50 1005.0
20260506085208 70 192 6.1 6.1 0.00 0.00 0.00 51 1005.0
20260506085012 69 191 7.0 7.0 0.00 0.00 0.00 53 1005.0
20260506084807 69 198 15.6 16.5 0.00 0.00 0.00 51 1005.0
20260506084622 69 198 7.8 7.8 0.00 0.00 0.00 53 1005.0
20260506084207 69 174 19.1 20.9 0.00 0.00 0.00 51 1005.0
20260506084013 70 102 5.2 5.2 0.00 0.00 0.00 49 1005.0
20260506083807 70 126 4.3 4.3 0.00 0.00 0.00 50 1005.0
20260506083608 70 189 14.8 15.6 0.00 0.00 0.00 50 1005.0
20260506083424 70 156 5.2 5.2 0.00 0.00 0.00 52 1006.0
20260506083023 69 146 5.2 5.2 0.00 0.00 0.00 53 1006.0
20260506082613 68 185 0.0 0.0 0.00 0.00 0.00 53 1006.0
20260506082407 68 180 12.2 12.2 0.00 0.00 0.00 54 1006.0
20260506082210 68 204 13.0 13.0 0.00 0.00 0.00 55 1006.0
20260506082012 68 197 15.6 16.5 0.00 0.00 0.00 52 1006.0
20260506081807 67 185 14.8 15.6 0.00 0.00 0.00 53 1006.0
20260506081606 67 168 7.0 7.0 0.00 0.00 0.00 59 1006.0
20260506081207 67 190 15.6 16.5 0.00 0.00 0.00 55 1006.0
20260506081013 67 192 7.8 7.8 0.00 0.00 0.00 56 1006.0
20260506080807 67 186 12.2 12.2 0.00 0.00 0.00 56 1006.0
20260506080606 66 198 0.0 0.0 0.00 0.00 0.00 59 1006.0
20260506080205 66 174 6.1 6.1 0.00 0.00 0.00 61 1005.0
20260506073409 65 210 13.0 13.0 0.00 0.00 0.00 59 1006.0
20260506073207 64 216 12.2 12.2 0.00 0.00 0.00 60 1006.0
20260506073015 64 168 12.2 12.2 0.00 0.00 0.00 59 1006.0
20260506072807 64 174 12.2 12.2 0.00 0.00 0.00 63 1006.0
20260506072607 64 180 7.8 7.8 0.00 0.00 0.00 64 1006.0
20260506072408 64 186 13.9 15.6 0.00 0.00 0.00 63 1006.0
20260506072207 65 180 20.0 21.7 0.00 0.00 0.00 61 1006.0
20260506072011 64 185 13.0 13.0 0.00 0.00 0.00 63 1006.0
20260506071807 64 180 7.0 7.0 0.00 0.00 0.00 64 1006.0
20260506071606 64 186 7.8 7.8 0.00 0.00 0.00 63 1006.0
20260506071406 64 192 12.2 12.2 0.00 0.00 0.00 66 1006.0
20260506071205 64 186 12.2 12.2 0.00 0.00 0.00 64 1006.0
20260506071009 64 180 16.5 17.4 0.00 0.00 0.00 65 1006.0
20260506070805 64 190 15.6 16.5 0.00 0.00 0.00 65 1006.0
20260506070605 64 186 17.4 19.1 0.00 0.00 0.00 64 1006.0
20260506070407 64 178 7.0 7.0 0.00 0.00 0.00 63 1006.0
20260506070206 64 168 7.8 7.8 0.00 0.00 0.00 64 1006.0
20260506062407 62 214 12.2 12.2 0.00 0.00 0.00 71 1006.0
20260506062205 62 180 12.2 12.2 0.00 0.00 0.00 69 1006.0
20260506062012 62 186 5.2 5.2 0.00 0.00 0.00 71 1006.0
20260506061807 61 180 0.0 0.0 0.00 0.00 0.00 70 1006.0
20260506061405 61 174 0.0 0.0 0.00 0.00 0.00 72 1006.0
20260506061011 60 186 7.0 7.0 0.00 0.00 0.00 73 1006.0
20260506060805 60 178 5.2 5.2 0.00 0.00 0.00 72 1006.0
20260506060607 60 174 7.0 7.0 0.00 0.00 0.00 74 1006.0
20260506060405 60 173 13.0 13.0 0.00 0.00 0.00 74 1006.0
20260506051407 56 186 7.8 7.8 0.00 0.00 0.00 84 1006.0
20260506051207 55 174 7.8 7.8 0.00 0.00 0.00 83 1006.0
20260506051011 55 179 7.8 7.8 0.00 0.00 0.00 86 1006.0
20260506050807 55 192 6.1 6.1 0.00 0.00 0.00 87 1006.0
20260506050407 54 192 7.0 7.0 0.00 0.00 0.00 86 1005.0
20260506050207 54 174 7.8 7.8 0.00 0.00 0.00 85 1005.0
20260506045012 52 286 5.2 5.2 0.00 0.00 0.00 87 1005.0
20260506044807 52 287 5.2 5.2 0.00 0.00 0.00 88 1005.0
20260506044607 53 287 0.0 0.0 0.00 0.00 0.00 88 1005.0
20260506044205 52 287 0.0 0.0 0.00 0.00 0.00 87 1005.0
20260506043807 52 287 0.0 0.0 0.00 0.00 0.00 89 1005.0
20260506043606 52 287 0.0 0.0 0.00 0.00 0.00 89 1005.0
20260506043407 52 287 0.0 0.0 0.00 0.00 0.00 88 1005.0
20260506043015 51 287 0.0 0.0 0.00 0.00 0.00 90 1005.0
20260506042807 51 287 0.0 0.0 0.00 0.00 0.00 88 1005.0
20260506042406 50 287 4.3 4.3 0.00 0.00 0.00 89 1005.0
20260506042206 49 288 5.2 5.2 0.00 0.00 0.00 91 1005.0
20260506042010 49 288 5.2 5.2 0.00 0.00 0.00 93 1005.0
20260506041807 48 288 0.0 0.0 0.00 0.00 0.00 94 1005.0
20260506041607 48 288 0.0 0.0 0.00 0.00 0.00 94 1005.0
20260506041406 48 288 0.0 0.0 0.00 0.00 0.00 95 1005.0
20260506041206 47 288 0.0 0.0 0.00 0.00 0.00 96 1005.0
20260506041008 47 288 0.0 0.0 0.00 0.00 0.00 97 1005.0
20260506040807 46 288 0.0 0.0 0.00 0.00 0.00 97 1005.0
20260506040407 45 288 0.0 0.0 0.00 0.00 0.00 96 1005.0
20260506040207 45 288 0.0 0.0 0.00 0.00 0.00 97 1005.0
20260506040019 45 288 0.0 0.0 0.00 0.00 0.00 97 1005.0
20260506035806 45 288 0.0 0.0 0.00 0.00 0.00 96 1005.0
20260506035606 45 288 0.0 0.0 0.00 0.00 0.00 98 1005.0
20260506035407 45 288 5.2 5.2 0.00 0.00 0.00 97 1005.0
20260506034806 46 288 0.0 0.0 0.00 0.00 0.00 98 1005.0
20260506034606 46 288 0.0 0.0 0.00 0.00 0.00 98 1005.0
20260506034406 46 288 0.0 0.0 0.00 0.00 0.00 98 1005.0
20260506034207 46 288 0.0 0.0 0.00 0.00 0.00 98 1005.0
20260506034011 46 288 0.0 0.0 0.00 0.00 0.00 98 1005.0
20260506033806 46 288 0.0 0.0 0.00 0.00 0.00 98 1005.0
20260506033606 46 288 0.0 0.0 0.00 0.00 0.00 98 1005.0
20260506033406 46 288 0.0 0.0 0.00 0.00 0.00 97 1004.0
20260506033207 46 288 0.0 0.0 0.00 0.00 0.00 97 1004.0
20260506033014 46 288 0.0 0.0 0.00 0.00 0.00 97 1005.0
20260506032807 46 288 0.0 0.0 0.00 0.00 0.00 97 1005.0
20260506032605 46 288 0.0 0.0 0.00 0.00 0.00 97 1005.0
20260506032206 46 288 0.0 0.0 0.00 0.00 0.00 96 1005.0
20260506032011 46 288 4.3 4.3 0.00 0.00 0.00 96 1005.0
20260506031807 46 288 4.3 4.3 0.00 0.00 0.00 96 1005.0
20260506031606 46 288 0.0 0.0 0.00 0.00 0.00 96 1005.0
20260506031407 46 288 4.3 4.3 0.00 0.00 0.00 96 1005.0
20260506031206 46 288 0.0 0.0 0.00 0.00 0.00 96 1005.0
20260506031010 46 288 0.0 0.0 0.00 0.00 0.00 96 1005.0
20260506030806 46 288 0.0 0.0 0.00 0.00 0.00 96 1005.0
20260506030407 46 288 0.0 0.0 0.00 0.00 0.00 96 1005.0
20260506030207 46 288 0.0 0.0 0.00 0.00 0.00 96 1005.0
20260506030019 46 288 4.3 4.3 0.00 0.00 0.00 96 1005.0
20260506025806 46 288 0.0 0.0 0.00 0.00 0.00 95 1005.0
20260506025606 46 288 5.2 5.2 0.00 0.00 0.00 95 1005.0
20260506025407 46 288 7.0 7.0 0.00 0.00 0.00 95 1004.0
20260506025206 46 288 4.3 4.3 0.00 0.00 0.00 94 1004.0
20260506025010 46 288 6.1 6.1 0.00 0.00 0.00 93 1005.0
20260506024806 47 288 5.2 5.2 0.00 0.00 0.00 93 1005.0
20260506024611 48 288 6.1 6.1 0.00 0.00 0.00 95 1005.0
20260506024406 48 288 5.2 5.2 0.00 0.00 0.00 94 1004.0
20260506024206 47 288 7.0 7.0 0.00 0.00 0.00 94 1004.0
20260506023806 47 288 5.2 5.2 0.00 0.00 0.00 94 1004.0
20260506023606 47 288 6.1 6.1 0.00 0.00 0.00 93 1004.0
20260506023406 48 288 4.3 4.3 0.00 0.00 0.00 92 1005.0
20260506023206 48 288 0.0 0.0 0.00 0.00 0.00 90 1005.0
20260506023013 48 288 0.0 0.0 0.00 0.00 0.00 90 1005.0
20260506022806 49 288 6.1 6.1 0.00 0.00 0.00 91 1005.0
20260506022206 50 288 0.0 0.0 0.00 0.00 0.00 91 1004.0
20260506022010 51 288 0.0 0.0 0.00 0.00 0.00 91 1005.0
20260506021807 51 288 0.0 0.0 0.00 0.00 0.00 93 1005.0
20260506021607 51 288 0.0 0.0 0.00 0.00 0.00 93 1005.0
20260506021206 52 288 0.0 0.0 0.00 0.00 0.00 91 1005.0
20260506021011 52 288 0.0 0.0 0.00 0.00 0.00 90 1005.0
20260506020806 52 288 0.0 0.0 0.00 0.00 0.00 91 1005.0
20260506020606 52 288 0.0 0.0 0.00 0.00 0.00 91 1005.0
20260506020022 53 288 0.0 0.0 0.00 0.00 0.00 89 1004.0
20260506015406 53 288 0.0 0.0 0.00 0.00 0.00 89 1005.0
20260506015206 53 288 0.0 0.0 0.00 0.00 0.00 89 1005.0
20260506015010 53 288 0.0 0.0 0.00 0.00 0.00 88 1004.0
20260506014807 54 288 0.0 0.0 0.00 0.00 0.00 87 1004.0
20260506014606 54 288 5.2 5.2 0.00 0.00 0.00 87 1004.0
20260506014406 54 288 6.1 6.1 0.00 0.00 0.00 87 1004.0
20260506014207 54 288 7.0 7.0 0.00 0.00 0.00 86 1004.0
20260506014011 54 291 7.0 7.0 0.00 0.00 0.00 86 1004.0
20260506013807 55 294 7.8 7.8 0.00 0.00 0.00 85 1004.0
20260506013606 55 294 7.8 7.8 0.00 0.00 0.00 85 1004.0
20260506013015 56 294 7.0 7.0 0.00 0.00 0.00 83 1004.0
20260506012807 56 298 7.8 7.8 0.00 0.00 0.00 83 1004.0
20260506012607 56 258 7.8 7.8 0.00 0.00 0.00 82 1004.0
20260506012406 56 270 12.2 12.2 0.00 0.00 0.00 81 1004.0
20260506012206 56 300 12.2 12.2 0.00 0.00 0.00 81 1004.0
20260506012011 56 292 15.6 16.5 0.00 0.00 0.00 81 1004.0
20260506011607 56 288 7.0 7.0 0.00 0.00 0.00 81 1004.0
20260506011407 56 274 7.8 7.8 0.00 0.00 0.00 81 1004.0
20260506011207 56 279 13.0 13.0 0.00 0.00 0.00 81 1004.0
20260506011011 56 286 13.9 14.8 0.00 0.00 0.00 81 1004.0
20260506010806 57 288 7.0 7.0 0.00 0.00 0.00 80 1004.0
20260506010406 57 294 27.8 29.5 0.00 0.00 0.00 79 1004.0
20260506010020 57 300 20.0 21.7 0.00 0.00 0.00 78 1004.0
20260506005806 58 288 21.7 21.7 0.00 0.00 0.00 77 1004.0
20260506005405 58 288 16.5 17.4 0.00 0.00 0.00 77 1003.0
20260506005207 58 6 21.7 24.3 0.00 0.00 0.00 77 1003.0
20260506005010 58 300 20.0 21.7 0.00 0.00 0.00 77 1003.0
20260506004806 57 270 26.9 27.8 0.00 0.00 0.00 77 1003.0
20260506004606 57 294 19.1 20.9 0.00 0.00 0.00 77 1003.0
20260506004206 57 282 17.4 18.2 0.00 0.00 0.00 77 1003.0
20260506004010 57 300 19.1 20.0 0.00 0.00 0.00 76 1003.0
20260506003807 57 300 13.0 13.0 0.00 0.00 0.00 77 1003.0
20260506003606 58 318 19.1 20.0 0.00 0.00 0.00 76 1003.0
20260506003406 58 294 26.1 26.9 0.00 0.00 0.00 76 1003.0
20260506003207 58 300 29.5 35.6 0.00 0.00 0.00 76 1003.0
20260506003015 58 279 34.8 38.2 0.00 0.00 0.00 75 1003.0
20260506002807 58 262 40.8 46.1 0.00 0.00 0.00 75 1003.0
20260506002605 58 280 33.9 38.2 0.00 0.00 0.00 76 1003.0
20260506002406 58 306 37.4 40.0 0.00 0.00 0.00 75 1003.0
20260506002206 58 287 37.4 42.6 0.00 0.00 0.00 75 1003.0
20260506002012 58 287 34.8 37.4 0.00 0.00 0.00 75 1003.0
20260506001807 58 288 36.5 40.8 0.00 0.00 0.00 74 1003.0
20260506001406 58 282 33.0 33.9 0.00 0.00 0.00 75 1003.0
20260506001011 58 258 39.1 40.8 0.00 0.00 0.00 75 1003.0
20260506000607 57 324 28.7 33.0 0.00 0.00 0.00 75 1003.0
20260506000408 57 318 33.9 37.4 0.00 0.00 0.00 75 1004.0
20260506000207 57 294 26.9 26.9 0.00 0.00 0.00 75 1004.0
20260505235807 56 276 19.1 20.9 0.00 0.00 0.00 77 1004.0
20260505235605 56 282 13.9 14.8 0.00 0.00 0.00 76 1004.0
20260505235406 56 269 15.6 16.5 0.00 0.00 0.00 74 1004.0
20260505235206 56 286 7.0 7.0 0.00 0.00 0.00 75 1004.0
20260505235011 56 294 5.2 5.2 0.00 0.00 0.00 75 1004.0
20260505234807 56 294 5.2 5.2 0.00 0.00 0.00 74 1004.0
20260505234606 56 294 0.0 0.0 0.00 0.00 0.00 74 1004.0
20260505234406 56 294 0.0 0.0 0.00 0.00 0.00 75 1004.0
20260505234206 56 294 0.0 0.0 0.00 0.00 0.00 74 1004.0
20260505234010 56 294 7.0 7.0 0.00 0.00 0.00 73 1004.0
20260505233807 56 306 5.2 5.2 0.00 0.00 0.00 73 1004.0
20260505233606 56 306 5.2 5.2 0.00 0.00 0.00 73 1004.0
20260505233407 56 306 4.3 4.3 0.00 0.00 0.00 72 1003.0
20260505233206 56 306 6.1 6.1 0.00 0.00 0.00 72 1003.0
20260505233015 56 306 7.8 7.8 0.00 0.00 0.00 72 1003.0
20260505232806 55 318 7.0 7.0 0.00 0.00 0.00 71 1003.0
20260505232606 55 332 7.0 7.0 0.00 0.00 0.00 71 1003.0
20260505232410 54 294 7.8 7.8 0.00 0.00 0.00 72 1003.0
20260505232207 53 294 13.0 13.0 0.00 0.00 0.00 74 1003.0
20260505232010 54 246 0.0 0.0 0.00 0.00 0.00 78 1003.0
20260505231807 54 246 0.0 0.0 0.00 0.00 0.00 78 1003.0
20260505231606 54 246 0.0 0.0 0.00 0.00 0.00 78 1003.0
20260505231206 54 246 5.2 5.2 0.00 0.00 0.00 76 1003.0
20260505230806 54 246 0.0 0.0 0.00 0.00 0.00 76 1003.0
20260505230607 54 246 0.0 0.0 0.00 0.00 0.00 76 1003.0
20260505230206 54 246 0.0 0.0 0.00 0.00 0.00 75 1003.0
20260505230019 54 246 0.0 0.0 0.00 0.00 0.00 76 1003.0
20260505225807 54 246 0.0 0.0 0.00 0.00 0.00 75 1003.0
20260505225607 54 246 0.0 0.0 0.00 0.00 0.00 75 1003.0
20260505225406 55 228 7.0 7.0 0.00 0.00 0.00 73 1003.0
20260505225206 55 162 0.0 0.0 0.00 0.00 0.00 73 1003.0
20260505225009 55 162 0.0 0.0 0.00 0.00 0.00 73 1003.0
20260505224806 55 162 0.0 0.0 0.00 0.00 0.00 72 1003.0
20260505224206 56 162 4.3 4.3 0.00 0.00 0.00 72 1003.0
20260505223806 56 162 5.2 5.2 0.00 0.00 0.00 70 1003.0
20260505223406 56 162 6.1 6.1 0.00 0.00 0.00 69 1003.0
20260505223206 57 162 6.1 6.1 0.00 0.00 0.00 68 1003.0
20260505223015 57 162 5.2 5.2 0.00 0.00 0.00 68 1003.0
20260505222806 57 138 7.8 7.8 0.00 0.00 0.00 67 1003.0
20260505222607 57 108 6.1 6.1 0.00 0.00 0.00 67 1003.0
20260505222406 57 108 0.0 0.0 0.00 0.00 0.00 67 1003.0
20260505222206 57 108 0.0 0.0 0.00 0.00 0.00 67 1003.0
20260505222012 57 108 0.0 0.0 0.00 0.00 0.00 67 1003.0
20260505221806 57 108 0.0 0.0 0.00 0.00 0.00 67 1003.0
20260505221606 57 162 0.0 0.0 0.00 0.00 0.00 67 1003.0
20260505221406 57 162 0.0 0.0 0.00 0.00 0.00 67 1003.0
20260505221207 57 174 4.3 4.3 0.00 0.00 0.00 67 1003.0
20260505221012 57 174 0.0 0.0 0.00 0.00 0.00 68 1003.0
20260505220806 57 174 0.0 0.0 0.00 0.00 0.00 67 1003.0
20260505220606 57 174 0.0 0.0 0.00 0.00 0.00 68 1003.0
20260505220406 57 174 0.0 0.0 0.00 0.00 0.00 68 1003.0
20260505220207 57 174 0.0 0.0 0.00 0.00 0.00 67 1003.0
20260505220019 57 174 7.8 7.8 0.00 0.00 0.00 67 1003.0
20260505215806 57 162 0.0 0.0 0.00 0.00 0.00 66 1003.0
20260505215607 57 162 5.2 5.2 0.00 0.00 0.00 66 1003.0
20260505215406 58 162 0.0 0.0 0.00 0.00 0.00 66 1003.0
20260505215206 58 162 0.0 0.0 0.00 0.00 0.00 65 1003.0
20260505215011 58 162 4.3 4.3 0.00 0.00 0.00 65 1003.0
20260505214807 58 144 0.0 0.0 0.00 0.00 0.00 65 1003.0
20260505214606 58 144 0.0 0.0 0.00 0.00 0.00 65 1003.0
20260505214406 58 138 0.0 0.0 0.00 0.00 0.00 65 1003.0
20260505214206 58 120 0.0 0.0 0.00 0.00 0.00 65 1003.0
20260505214011 58 162 0.0 0.0 0.00 0.00 0.00 65 1003.0
20260505213806 58 162 0.0 0.0 0.00 0.00 0.00 65 1003.0
20260505213606 58 144 0.0 0.0 0.00 0.00 0.00 64 1003.0
20260505213407 58 126 0.0 0.0 0.00 0.00 0.00 64 1003.0
20260505213207 58 180 4.3 4.3 0.00 0.00 0.00 64 1003.0
20260505213014 58 174 0.0 0.0 0.00 0.00 0.00 64 1003.0
20260505212807 58 204 4.3 4.3 0.00 0.00 0.00 64 1003.0
20260505212605 58 192 0.0 0.0 0.00 0.00 0.00 63 1003.0
20260505212406 58 108 4.3 4.3 0.00 0.00 0.00 63 1003.0
20260505212206 58 150 0.0 0.0 0.00 0.00 0.00 63 1003.0
20260505212011 59 114 5.2 5.2 0.00 0.00 0.00 63 1003.0
20260505211807 59 108 6.1 6.1 0.00 0.00 0.00 63 1003.0
20260505211043 58 83 6.1 6.1 0.00 0.00 0.00 62 1003.0
20260505210844 58 198 0.0 0.0 0.00 0.00 0.00 62 1003.0
20260505210139 58 138 4.3 4.3 0.00 0.00 0.00 63 1003.0
20260505205807 59 144 0.0 0.0 0.00 0.00 0.00 62 1003.0
20260505205607 59 100 4.3 4.3 0.00 0.00 0.00 62 1003.0
20260505205207 59 108 6.1 6.1 0.00 0.00 0.00 62 1003.0
20260505205031 59 42 0.0 0.0 0.00 0.00 0.00 62 1003.0
20260505204820 59 359 6.1 6.1 0.00 0.00 0.00 61 1003.0
20260505204624 59 192 7.8 7.8 0.00 0.00 0.00 61 1003.0
20260505204407 59 126 5.2 5.2 0.00 0.00 0.00 61 1003.0
20260505204012 59 114 7.8 7.8 0.00 0.00 0.00 61 1003.0
20260505203806 59 120 5.2 5.2 0.00 0.00 0.00 61 1003.0
20260505203610 59 120 5.2 5.2 0.00 0.00 0.00 61 1003.0
20260505203209 59 150 5.2 5.2 0.00 0.00 0.00 60 1003.0
20260505203019 59 90 5.2 5.2 0.00 0.00 0.00 60 1003.0
20260505202807 60 114 7.0 7.0 0.00 0.00 0.00 60 1003.0
20260505202607 60 120 7.0 7.0 0.00 0.00 0.00 60 1003.0
20260505202406 60 108 6.1 6.1 0.00 0.00 0.00 60 1003.0
20260505202207 60 168 4.3 4.3 0.00 0.00 0.00 60 1003.0
20260505202013 60 138 5.2 5.2 0.00 0.00 0.00 60 1002.0
20260505201807 60 162 7.0 7.0 0.00 0.00 0.00 60 1002.0
20260505201606 60 108 6.1 6.1 0.00 0.00 0.00 60 1002.0
20260505201406 60 114 6.1 6.1 0.00 0.00 0.00 60 1003.0
20260505201217 60 83 0.0 0.0 0.00 0.00 0.00 59 1003.0
20260505201011 60 185 5.2 5.2 0.00 0.00 0.00 59 1003.0
20260505200806 60 102 5.2 5.2 0.00 0.00 0.00 59 1003.0
20260505200606 60 114 6.1 6.1 0.00 0.00 0.00 59 1003.0
20260505200416 60 120 0.0 0.0 0.00 0.00 0.00 59 1003.0
20260505200206 60 120 6.1 6.1 0.00 0.00 0.00 58 1003.0
20260505200020 61 95 7.0 7.0 0.00 0.00 0.00 58 1003.0
20260505195809 61 96 0.0 0.0 0.00 0.00 0.00 58 1003.0
20260505195406 61 108 7.0 7.0 0.00 0.00 0.00 58 1003.0
20260505195208 61 126 6.1 6.1 0.00 0.00 0.00 58 1003.0
20260505195013 61 82 0.0 0.0 0.00 0.00 0.00 58 1003.0
20260505194807 61 144 4.3 4.3 0.00 0.00 0.00 58 1003.0
20260505194609 61 95 6.1 6.1 0.00 0.00 0.00 58 1003.0
20260505194407 61 114 6.1 6.1 0.00 0.00 0.00 58 1003.0
20260505194219 61 150 7.0 7.0 0.00 0.00 0.00 58 1003.0
20260505193806 61 126 4.3 4.3 0.00 0.00 0.00 57 1002.0
20260505193612 61 126 6.1 6.1 0.00 0.00 0.00 57 1002.0
20260505193410 61 93 13.0 14.8 0.00 0.00 0.00 57 1003.0
20260505193022 61 100 6.1 6.1 0.00 0.00 0.00 57 1003.0
20260505192806 61 102 7.0 7.0 0.00 0.00 0.00 57 1003.0
20260505192607 62 102 4.3 4.3 0.00 0.00 0.00 57 1003.0
20260505192409 62 108 5.2 5.2 0.00 0.00 0.00 56 1002.0
20260505192206 62 102 0.0 0.0 0.00 0.00 0.00 56 1002.0
20260505192023 62 108 4.3 4.3 0.00 0.00 0.00 56 1002.0
20260505191605 62 156 7.0 7.0 0.00 0.00 0.00 56 1002.0
20260505191406 62 150 5.2 5.2 0.00 0.00 0.00 56 1003.0
20260505191208 62 138 5.2 5.2 0.00 0.00 0.00 56 1003.0
20260505190807 62 151 4.3 4.3 0.00 0.00 0.00 56 1003.0
20260505190609 62 150 0.0 0.0 0.00 0.00 0.00 55 1003.0
20260505190406 62 162 0.0 0.0 0.00 0.00 0.00 55 1003.0
20260505190021 63 93 13.9 15.6 0.00 0.00 0.00 55 1003.0
20260505185807 63 150 5.2 5.2 0.00 0.00 0.00 55 1003.0
20260505185606 63 120 4.3 4.3 0.00 0.00 0.00 55 1003.0
20260505185406 63 102 4.3 4.3 0.00 0.00 0.00 55 1003.0
20260505185206 63 120 0.0 0.0 0.00 0.00 0.00 55 1003.0
20260505184807 63 150 4.3 4.3 0.00 0.00 0.00 54 1003.0
20260505184407 64 120 6.1 6.1 0.00 0.00 0.00 53 1002.0
20260505184207 64 101 5.2 5.2 0.00 0.00 0.00 53 1002.0
20260505184011 64 114 0.0 0.0 0.00 0.00 0.00 52 1003.0
20260505183807 64 139 7.0 7.0 0.00 0.00 0.00 52 1003.0
20260505183407 65 150 4.3 4.3 0.00 0.00 0.00 51 1002.0
20260505183207 65 126 5.2 5.2 0.00 0.00 0.00 51 1002.0
20260505182807 65 168 4.3 4.3 0.00 0.00 0.00 51 1002.0
20260505182605 65 132 4.3 4.3 0.00 0.00 0.00 50 1002.0
20260505182407 65 162 6.1 6.1 0.00 0.00 0.00 50 1002.0
20260505182207 65 132 7.0 7.0 0.00 0.00 0.00 50 1002.0
20260505181806 66 145 6.1 6.1 0.00 0.00 0.00 49 1003.0
20260505181407 66 116 5.2 5.2 0.00 0.00 0.00 49 1003.0
20260505181207 66 216 4.3 4.3 0.00 0.00 0.00 50 1003.0
20260505180807 66 97 7.0 7.0 0.00 0.00 0.00 49 1002.0
20260505180606 67 150 7.0 7.0 0.00 0.00 0.00 48 1002.0